CZ-6A DEB, 54348

Orbit data source: Space-Track

CZ-6A DEB, 54348 is space debris in SSO originally from a launch on Fri, 11 Nov 2022 UTC launched from the Taiyaun Space Center, China (TSC). Debris objects in space refer to the collection of defunct objects orbiting the Earth. Examples of debris include non-operational satellites, rocket bodies, and fragments generated from explosions, collisions, or faulty payload assembly.

Loading next visibility...
Identifier
54348, 2022-151CT
Orbit
SSO
Country
Flag of CNCN / PRC
Related business
Manufacturer
SAST
Mission
Spacecraft
Bus & Motor
Unknown
Mass
Unknown
Launch date (UTC)
2022-11-11 (3 years ago)
Launch vehicle
Unknown
Launch site
Taiyaun Space Center, China (TSC)
Object type
Payload
Rocket body
Debris
Shape & HBR
Unknown shape, 0.1 m
Radar Cross Section
Small (<0.1 m²)

Expand to show TLE details & history
Last TLE update: 2 days ago

TLE from 2 days ago
0 CZ-6A DEB
1 54348U 22151CT  25349.05275740  .00001263  00000-0  42839-3 0  9999
2 54348  98.6449  12.3184 0100801 224.6212 134.6828 14.35677055161164
Epoch: 2025-12-15T01:15Z
TLE epoch observation values (Epoch: 2025-12-15T01:15:58.239Z)
Latitude
-0.00002°
Longitude
-90.63111°
Altitude
826.816 km
Speed
7.413 km/s
True Right ascension
00h 49m 16s
True Declination
0° 00' 00"
Sunlit
Object was in daylight at epoch
Visualization orbit readout
Latitude
Unknown
Longitude
Unknown
Altitude
Unknown
Speed
Unknown
Apparent Right ascension
Unknown
Apparent Declination
Unknown
Sunlit
N/A
Visualization observer readout
Local Sidereal Time
17:45:45
Azimuth
Unknown
Elevation
Unknown
Doppler factor
Unknown
Orbital elements
Apogee altitude
842.005 km
Perigee altitude
697.898 km
Semi-major axis
7,148.088 km
Eccentricity
0.01008
Inclination
98.6449°
RAAN
12.3184°
Arg. of periapsis
224.6212°
True anomaly
135.49684°
Mean anomaly
134.6828°
Eccentric anomaly
135.09054°
Mean motion
3.59135 °/min
Orbital period
100.24 mins
BSTAR
0.00042839
Loading maneuver chart data...
Computing Atmospheric mass density...
Loading historical data...
Loading historical data...
Loading historical data...
Loading historical data...
Loading historical data...
Loading historical data...
Loading historical data...

Documentation

Showing up to 5 results
|